FW4099 Weather Reports


time (UTC)temp
C
wind
direction
speed
KPH
gust
KPH
rain 1hr
cm
rain 24hr
cm
rain mn
cm
humidity
%
barometer
mb
20260505070029 -17 0.0 0.0 0.00 0.00 0.00 1022.8
20260505070008 15 304 3.2 8.0 0.00 0.03 0.03 76 1021.9
20260505064530 -17 0.0 0.0 0.00 0.00 0.00 1022.7
20260505064521 15 264 6.4 11.3 0.00 0.03 0.03 76 1021.7
20260505063031 -17 0.0 0.0 0.00 0.00 0.00 1022.6
20260505063006 15 290 6.4 12.9 0.00 0.03 0.03 75 1021.6
20260505061532 -17 0.0 0.0 0.00 0.00 0.00 1022.5
20260505061512 16 267 4.8 11.3 0.00 0.03 0.03 74 1021.5
20260505060030 -17 0.0 0.0 0.00 0.00 0.00 1022.5
20260505060007 16 274 4.8 11.3 0.00 0.03 0.03 73 1021.5
20260505054547 -17 0.0 0.0 0.00 0.00 0.00 1022.4
20260505054505 16 226 6.4 16.1 0.00 0.05 0.03 72 1021.4
20260505053042 -17 0.0 0.0 0.00 0.00 0.00 1022.4
20260505053005 16 244 6.4 14.5 0.00 0.05 0.03 72 1021.3
20260505051537 -17 0.0 0.0 0.00 0.00 0.00 1022.3
20260505051505 16 234 1.6 12.9 0.00 0.05 0.03 73 1021.3
20260505041558 15 254 6.4 16.1 0.00 0.13 0.03 73 1021.3
20260505041531 -17 0.0 0.0 0.00 0.00 0.00 1022.2
20260505040055 15 232 8.0 14.5 0.00 0.13 0.03 74 1021.2
20260505040040 -17 0.0 0.0 0.00 0.00 0.00 1022.1
20260505034550 15 240 6.4 14.5 0.00 0.13 0.03 73 1021.2
20260505034530 -17 0.0 0.0 0.00 0.00 0.00 1022.2
20260505033049 15 231 4.8 14.5 0.00 0.13 0.03 73 1021.4
20260505033040 -17 0.0 0.0 0.00 0.00 0.00 1022.2
20260505031559 15 236 9.7 16.1 0.00 0.13 0.03 73 1021.6
20260505031533 -17 0.0 0.0 0.00 0.00 0.00 1022.3
20260505030043 15 223 6.4 19.3 0.00 0.13 0.03 73 1021.7
20260505030029 -17 0.0 0.0 0.00 0.00 0.00 1022.4
20260505024543 15 263 9.7 20.9 0.00 0.28 0.03 72 1021.8
20260505024530 -17 0.0 0.0 0.00 0.00 0.00 1022.5
20260505023041 15 221 4.8 12.9 0.00 0.28 0.03 72 1022.0
20260505023032 -17 0.0 0.0 0.00 0.00 0.00 1022.7
20260505021541 15 252 6.4 14.5 0.00 0.28 0.03 72 1022.0
20260505021532 -17 0.0 0.0 0.00 0.00 0.00 1022.9
20260505020040 15 228 6.4 12.9 0.00 0.28 0.03 74 1022.1
20260505020030 -17 0.0 0.0 0.00 0.00 0.00 1023.0
20260505014538 14 242 6.4 14.5 0.00 0.28 0.03 75 1022.2
20260505014530 -17 0.0 0.0 0.00 0.00 0.00 1023.0
20260505013034 13 254 6.4 14.5 0.00 0.28 0.03 77 1022.3
20260505013029 -17 0.0 0.0 0.00 0.00 0.00 1023.0
20260505011534 13 236 4.8 12.9 0.03 0.28 0.03 81 1022.3
20260505011530 -17 0.0 0.0 0.00 0.00 0.00 1023.0
20260505010030 -17 0.0 0.0 0.00 0.00 0.00 1023.1
20260505010027 12 257 6.4 11.3 0.03 0.28 0.03 84 1022.3
20260505004541 12 235 9.7 19.3 0.03 0.28 0.03 85 1022.3
20260505004533 -17 0.0 0.0 0.00 0.00 0.00 1023.0
20260505003032 -17 0.0 0.0 0.00 0.00 0.00 1023.0
20260505003022 12 252 8.0 14.5 0.03 0.28 0.03 89 1022.3
20260505001532 -17 0.0 0.0 0.00 0.00 0.00 1022.9
20260505001520 12 219 8.0 17.7 0.00 0.25 0.00 92 1022.2
20260505000034 11 218 11.3 20.9 0.00 0.25 0.00 93 1022.1
20260504234530 -17 0.0 0.0 0.00 0.00 0.00 1022.7
20260504234514 12 221 6.4 14.5 0.00 0.28 0.00 95 1022.1
20260504233032 -17 0.0 0.0 0.00 0.00 0.00 1022.6
20260504233012 11 227 4.8 14.5 0.00 0.28 0.00 96 1021.9
20260504231532 -17 0.0 0.0 0.00 0.00 0.00 1022.2
20260504231509 11 229 6.4 14.5 0.00 0.28 0.00 96 1021.6
20260504230032 -17 0.0 0.0 0.00 0.00 0.00 1022.3
20260504230006 11 246 6.4 11.3 0.00 0.28 0.00 96 1021.5
20260504224530 -17 0.0 0.0 0.00 0.00 0.00 1021.9
20260504224503 11 265 4.8 9.7 0.00 0.28 0.00 96 1021.3
20260504223029 -17 0.0 0.0 0.00 0.00 0.00 1021.7
20260504223001 11 230 3.2 8.0 0.00 0.28 0.00 96 1021.1
20260504221606 11 229 1.6 8.0 0.00 0.28 0.00 96 1021.0
20260504221530 -17 0.0 0.0 0.00 0.00 0.00 1021.6
20260504220100 10 244 1.6 6.4 0.00 0.28 0.00 95 1020.9
20260504220032 -17 0.0 0.0 0.00 0.00 0.00 1021.5
20260504214557 11 230 4.8 12.9 0.00 0.28 0.00 96 1020.6
20260504214535 -17 0.0 0.0 0.00 0.00 0.00 1021.3
20260504213053 10 240 4.8 17.7 0.00 0.28 0.00 95 1020.4
20260504213030 -17 0.0 0.0 0.00 0.00 0.00 1021.0
20260504211550 10 209 9.7 17.7 0.00 0.28 0.00 96 1020.1
20260504211531 -17 0.0 0.0 0.00 0.00 0.00 1020.9
20260504210048 10 240 6.4 14.5 0.00 0.28 0.00 96 1019.9
20260504210031 -17 0.0 0.0 0.00 0.00 0.00 1020.6
20260504204543 10 248 4.8 12.9 0.00 0.28 0.00 95 1019.7
20260504204532 -17 0.0 0.0 0.00 0.00 0.00 1020.5
20260504203042 10 265 3.2 8.0 0.00 0.28 0.00 95 1019.6
20260504203033 -17 0.0 0.0 0.00 0.00 0.00 1020.3
20260504201541 10 223 4.8 11.3 0.00 0.28 0.00 95 1019.6
20260504201529 -17 0.0 0.0 0.00 0.00 0.00 1020.2
20260504200040 10 221 8.0 14.5 0.00 0.28 0.00 95 1019.4
20260504194539 10 236 8.0 14.5 0.00 0.28 0.00 96 1019.4
20260504194533 -17 0.0 0.0 0.00 0.00 0.00 1020.1
20260504193036 9 265 8.0 14.5 0.00 0.28 0.00 95 1019.2
20260504193032 -17 0.0 0.0 0.00 0.00 0.00 1019.8
20260504191546 -17 0.0 0.0 0.00 0.00 0.00 1019.7
20260504191539 9 265 6.4 9.7 0.00 0.28 0.00 95 1019.0
20260504190031 -17 0.0 0.0 0.00 0.00 0.00 1019.5
20260504184538 -17 0.0 0.0 0.00 0.00 0.00 1019.4
20260504184529 8 244 3.2 8.0 0.00 0.28 0.00 95 1018.7
20260504183040 -17 0.0 0.0 0.00 0.00 0.00 1019.3
20260504183028 8 296 4.8 12.9 0.00 0.28 0.00 95 1018.6
20260504181532 -17 0.0 0.0 0.00 0.00 0.00 1019.0
20260504181529 8 283 3.2 8.0 0.00 0.28 0.00 95 1018.4
20260504180030 -17 0.0 0.0 0.00 0.00 0.00 1019.1
20260504180025 8 309 6.4 11.3 0.00 0.28 0.00 95 1018.6
20260504174531 -17 0.0 0.0 0.00 0.00 0.00 1019.1
20260504174522 8 309 3.2 8.0 0.00 0.28 0.00 95 1018.4
20260504173030 -17 0.0 0.0 0.00 0.00 0.00 1019.1
20260504173021 8 307 3.2 6.4 0.00 0.28 0.00 94 1018.4
20260504171531 -17 0.0 0.0 0.00 0.00 0.00 1019.0
20260504171519 9 321 4.8 8.0 0.00 0.28 0.00 94 1018.4
20260504081534 -17 0.0 0.0 0.00 0.00 0.00 1014.8
20260504081518 13 245 11.3 25.7 0.00 0.28 0.28 86 1013.9